Location: Berlin
(38.3226°N, 75.2177°W)
Time: 05:48:34
(UTC+00:00)

ARGOS - Pass Details

Date: 26 October 2020
Orbit: 820 x 835 km, 98.4° (Epoch: 26 November)

Event Time Altitude Azimuth Distance (km) Brightness Sun altitude
Exits shadow 00:36:34 73° 250° (WSW) 872 3.2 -29.6°
Maximum altitude 00:36:39 73° 258° (WSW) 872 3.2 -29.6°
Drops below altitude 10° 00:42:05 10° 343° (NNW) 2,452 5.9 -30.6°
Sets 00:44:28 0° 345° (NNW) 3,391 6.6 -31.1°
